Location: Unspecified
(0.0000°N, 0.0000°E)
Time: 03:49:13
(UTC+00:00)

S-56A Canister/Altair - Visible Passes

Search period start: 25 January 2015 00:00
Search period end: 04 February 2015 00:00
Orbit: 633 x 2502 km, 38.9° (Epoch: 20 January)

Date Brightness Start Highest point End Pass type
(mag) Time Alt. Az. Time Alt. Az. Time Alt. Az.
25 Jan 11.2 18:40:55 10° N 18:44:24 11° NNE 18:48:53 10° NE visible
25 Jan 10.7 20:41:52 10° NNW 20:49:46 28° N 20:49:46 28° N visible
26 Jan 10.5 20:09:02 10° NNW 20:20:00 31° NNE 20:20:00 31° NNE visible
26 Jan 11.2 22:14:21 10° NW 22:17:32 19° NW 22:17:32 19° NW visible
27 Jan 10.5 19:36:18 10° NNW 19:47:58 28° NNE 19:50:24 27° NE visible
27 Jan 10.7 21:41:05 10° NW 21:47:56 33° NW 21:47:56 33° NW visible
28 Jan 10.6 19:03:41 10° NNW 19:14:35 25° NNE 19:20:59 19° ENE visible
28 Jan 10.1 21:07:55 10° NW 21:18:33 51° NNW 21:18:33 51° NNW visible
29 Jan 10.9 18:31:13 10° NNW 18:41:10 22° NNE 18:51:45 10° ENE visible
29 Jan 9.7 20:34:52 10° NW 20:49:23 63° NNE 20:49:23 63° NNE visible
29 Jan 11.2 22:42:46 10° WNW 22:46:58 21° WNW 22:46:58 21° WNW visible
30 Jan 9.9 20:01:54 10° NW 20:16:34 56° NE 20:20:28 47° E visible
30 Jan 10.6 22:09:05 10° WNW 22:18:05 39° W 22:18:05 39° W visible
31 Jan 10.0 19:29:04 10° NNW 19:43:19 50° NE 19:51:51 26° E visible
31 Jan 10.0 21:35:33 10° WNW 21:49:29 61° WSW 21:49:29 61° WSW visible
01 Feb 10.2 18:56:20 10° NNW 19:10:02 45° NE 19:23:19 10° ESE visible
01 Feb 9.9 21:02:09 10° NW 21:17:20 70° SW 21:21:12 52° SSE visible
01 Feb 11.3 23:14:29 10° W 23:18:52 17° WSW 23:18:52 17° WSW visible
02 Feb 10.4 18:23:45 10° NNW 18:36:43 40° NE 18:50:04 10° ESE visible
02 Feb 9.9 20:28:54 10° NW 20:44:13 79° SW 20:53:16 26° SE visible
02 Feb 11.0 22:39:57 10° W 22:50:56 25° SW 22:50:57 25° SW visible
03 Feb 9.9 19:55:47 10° NW 20:11:02 87° SW 20:24:35 10° SE visible
03 Feb 10.9 22:05:41 10° W 22:17:56 30° SW 22:23:26 21° S visible
